www.pogodaiklimat.ru

Погода и климат >> Архив погоды >> Финляндия >> Муонио Саммалтунтури


ПОГОДА в Муонио Саммалтунтури

  • Прогноз погоды в Муонио Саммалтунтури
  • Монитор погоды в Муонио Саммалтунтури

АРХИВ ПОГОДЫ в Муонио Саммалтунтури

Время (UTC), дата Ветер
(напр.,м/с)
 
Видим.   Явления Облачность Т
(С)
Тd
(С)
f
(%)
Тe
(С)
Тes
(С)
Комфортность P
(гПа)
Po
(гПа)
Тmin
(С)
Tmax
(С)
R
(мм)
R24
(мм)
S
(см)
04 19.03 С 8 н/о н/о -6.5 -7.0 96 -16 -16 1007.9 938.5
05 19.03 СВ 9 н/о н/о -6.3 -6.8 96 -16 -16 1008.8 939.4
06 19.03 С 8-11
{11}
17 км н/о -6.1 -6.6 96 -15 -15 1010.0 940.6 -6.6 -5.9
07 19.03 С 8-10
{11}
30 км н/о -5.8 -6.3 96 -15 -15 1010.5 941.0
08 19.03 С 7 25 км н/о -5.6 -6.2 96 -14 -14 1011.1 941.7
09 19.03 С 5-7
{8}
35 км в посл. час снег {ливн. осадки} н/о -5.0 -5.6 96 -12 -12 1011.8 942.5
10 19.03 С 3 30 км в посл. час осадки н/о -4.2 -4.9 95 -10 -10 1011.9 942.8
11 19.03 СЗ 3 35 км н/о -4.0 -4.7 95 -10 -10 1012.3 943.2
12 19.03 СЗ 4-6
{6}
30 км {ливн. осадки, снег} н/о -4.3 -5.1 94 -11 -11 1012.7 943.5
13 19.03 СЗ 4 45 км н/о -5.5 -5.9 97 -12 -12 1013.3 943.8
14 19.03 З 4 40 км н/о -4.8 -5.5 95 -11 -11 1013.3 943.9
15 19.03 З 5-6
{6}
30 км н/о -5.0 -5.7 95 -12 -12 1013.5 944.1
16 19.03 З 5 40 км н/о -5.2 -5.9 95 -13 -13 1013.6 944.1
17 19.03 З 4 50 км н/о -5.9 -6.7 94 -13 -13 1013.4 943.8
18 19.03 З 6-7
{7}
50 км н/о -6.1 -8.0 86 -14 -14 1013.0 943.4 -6.2 -3.3
19 19.03 З 6 50 км н/о -5.8 -8.6 81 -14 -14 1012.8 943.2
20 19.03 ЮЗ 6-7
{7}
50 км н/о -5.5 -8.3 81 -13 -13 1012.6 943.1
21 19.03 ЮЗ 7-8
{8}
50 км н/о -5.5 -8.6 79 -14 -14 1011.9 942.4
22 19.03 ЮЗ 7-8
{8}
50 км н/о -5.7 -9.0 77 -14 -14 1011.3 941.9
23 19.03 ЮЗ 8 50 км н/о -6.2 -8.8 82 -15 -15 1010.6 941.1
00 20.03 ЮЗ 9-11
{11}
45 км н/о -5.8 -9.6 74 -15 -15 1009.5 940.2
01 20.03 ЮЗ 8 50 км н/о -5.8 -10.4 70 -15 -15 1009.1 939.8
02 20.03 Ю 8-10
{12}
45 км н/о -6.8 -10.2 77 -16 -16 1008.6 939.1
03 20.03 Ю 8-9
{10}
50 км н/о -7.9 -10.0 85 -17 -17 1007.8 938.0
04 20.03 Ю 9 50 км н/о -8.0 -9.8 87 -18 -18 1006.7 937.0
05 20.03 Ю 9 50 км н/о -8.0 -9.0 92 -18 -18 1006.0 936.3
06 20.03 Ю 10-14
{14}
21 км н/о -6.7 -9.0 84 -17 -17 1004.5 935.3 -8.2 -5.4
07 20.03 Ю 11-14
{15}
20 км н/о -6.6 -8.0 90 -17 -17 1004.1 934.9
08 20.03 Ю 10-13
{14}
17 км снежные зёрна н/о -6.5 -8.1 88 -17 -17 1003.7 934.5
09 20.03 Ю 10-13
{14}
15 км слаб. ливневой снег н/о -5.9 -7.7 87 -16 -16 1003.1 934.2
10 20.03 Ю 9-13
{14}
2600 м слаб. снег н/о -5.8 -6.9 92 -15 -15 1003.0 934.1
11 20.03 Ю 9 1600 м слаб. снег н/о -5.6 -6.1 96 -15 -15 1002.7 933.9
12 20.03 ЮЗ 10-12
{13}
100 м сильн. снег {ливн. осадки} н/о -5.3 -5.7 97 -15 -15 1002.5 933.8
13 20.03 ЮЗ 9-11
{12}
300 м снег н/о -5.2 -5.6 97 -15 -15 1002.5 933.8
14 20.03 ЮЗ 11 800 м слаб. снег н/о -5.2 -5.6 97 -15 -15 1002.2 933.6
15 20.03 ЮЗ 10-12
{13}
900 м снежные зёрна н/о -5.3 -5.7 97 -15 -15 1002.7 933.9
16 20.03 ЮЗ 8 800 м слаб. ледяной дождь н/о -5.4 -5.7 98 -15 -15 1003.2 934.4
17 20.03 ЮЗ 9 400 м снежные зёрна н/о -5.6 -6.0 97 -15 -15 1003.4 934.5
18 20.03 З 7-8
{10}
100 м слаб. снег н/о -5.8 -6.2 97 -14 -14 1003.8 934.8 -6.8 -4.9
19 20.03 З 8 100 м слаб. снег н/о -5.9 -6.4 96 -15 -15 1003.7 934.7
20 20.03 ЮЗ 8 100 м слаб. снег н/о -5.9 -6.3 97 -15 -15 1003.7 934.7
21 20.03 ЮЗ 7-8
{9}
100 м снежные зёрна н/о -6.0 -6.4 97 -15 -15 1003.9 934.9
22 20.03 ЮЗ 8 100 м снежные зёрна н/о -6.3 -6.9 95 -16 -16 1003.8 934.7
23 20.03 З 8 2100 м слаб. снег н/о -5.2 -5.5 98 -14 -14 1003.5 934.7
00 21.03 ЮЗ 8-9
{9}
1200 м снежные зёрна {ливн. осадки} н/о -6.2 -6.7 96 -15 -15 1003.8 934.8
01 21.03 ЮЗ 8 1000 м слаб. ливневой снег н/о -6.2 -6.7 96 -15 -15 1003.6 934.6
02 21.03 ЮЗ 9-9
{10}
900 м слаб. ливневой снег н/о -6.5 -7.1 95 -16 -16 1003.4 934.3
03 21.03 ЮЗ 9-10
{10}
900 м слаб. ливневой снег н/о -6.6 -7.2 95 -16 -16 1003.1 934.0
04 21.03 ЮЗ 9 1100 м слаб. ливневой снег н/о -6.6 -7.1 96 -16 -16 1003.3 934.2
05 21.03 ЮЗ 7 40 км в посл. час зёрна н/о -6.4 -6.8 97 -15 -15 1003.1 934.1
06 21.03 ЮЗ 8-9
{10}
300 м слаб. ливневой снег н/о -7.8 -8.7 93 -17 -17 1003.3 933.9 -8.1 -4.8
07 21.03 ЮЗ 6 45 км в посл. час зёрна н/о -6.6 -7.3 95 -15 -15 1002.7 933.6
08 21.03 ЮЗ 6-8
{8}
35 км н/о -5.9 -6.5 96 -14 -14 1002.2 933.4
09 21.03 ЮЗ 7-8
{10}
27 км в посл. час снег {ливн. осадки} н/о -5.8 -6.7 93 -14 -14 1002.0 933.2
10 21.03 ЮЗ 7 200 м туман н/о -6.0 -6.8 94 -15 -15 1001.9 933.0
11 21.03 ЮЗ 5 30 км в посл. час туман н/о -3.9 -4.5 96 -11 -11 1000.4 932.2
12 21.03 Ю 6-7
{7}
28 км {ливн. осадки, снег} н/о -4.0 -4.5 96 -12 -12 999.3 931.1
13 21.03 ЮВ 6 25 км н/о -4.4 -4.8 97 -12 -12 998.3 930.1
14 21.03 ЮВ 6-9
{9}
300 м туман н/о -4.7 -5.0 98 -13 -13 997.8 929.5
15 21.03 ЮВ 8-9
{10}
200 м снег {осадки} н/о -4.5 -4.9 97 -13 -13 996.8 928.6
18 21.03 ЮВ 2-3
{5}
1300 м слаб. снег {осадки} н/о -4.5 -4.8 98 -9 -9 996.5 928.3 -7.8 -3.9
19 21.03 СЗ 5-6
{6}
500 м снег н/о -4.6 -4.8 99 -12 -12 997.5 929.3
20 21.03 СЗ 10-11
{12}
100 м снег н/о -4.2 -4.5 98 -14 -14 998.9 930.7
21 21.03 СЗ 14-19
{19}
800 м снег н/о -4.3 -4.5 99 -15 -15 1000.7 932.4
22 21.03 СЗ 13-15
{19}
2900 м слаб. снег н/о -4.2 -4.5 98 -15 -15 1003.0 934.5
23 21.03 СЗ 11 10 км слаб. ливневой снег н/о -4.4 -4.7 98 -14 -14 1005.2 936.5
00 22.03 СЗ 10-13
{13}
14 км {ливн. осадки, снег} н/о -5.1 -5.5 97 -15 -15 1007.6 938.5
01 22.03 СЗ 9-11
{13}
18 км н/о -5.9 -6.4 96 -16 -16 1009.5 940.1
02 22.03 СЗ 8 24 км н/о -6.5 -7.0 96 -16 -16 1011.3 941.6
03 22.03 СЗ 10-12
{12}
20 км н/о -7.2 -7.9 95 -17 -17 1012.6 942.7
04 22.03 СЗ 7 16 км н/о -7.6 -8.3 95 -17 -17 1013.9 943.8
05 22.03 З 6 18 км н/о -7.7 -8.4 95 -16 -16 1015.1 944.9
06 22.03 З 9-11
{12}
18 км н/о -7.6 -8.4 94 -18 -18 1015.7 945.5 -8.1 -4.2
07 22.03 З 10 20 км н/о -7.0 -7.8 94 -17 -17 1016.1 946.0
08 22.03 З 10-14
{14}
13 км н/о -6.0 -6.8 94 -16 -16 1016.5 946.6
09 22.03 З 10-13
{14}
21 км н/о -3.6 -7.3 75 -13 -13 1016.3 947.0
10 22.03 З 10-14
{15}
21 км н/о -2.3 -9.3 59 -11 -11 1016.1 947.2
11 22.03 З 11 12 км н/о -1.8 -9.5 56 -10 -10 1015.7 946.9
12 22.03 З 12-15
{15}
15 км н/о -1.0 -10.3 49 -9 -9 1015.3 946.7
13 22.03 ЮЗ 9-13
{15}
35 км н/о -0.4 -10.6 46 -8 -8 1015.2 946.8
14 22.03 ЮЗ 10 23 км н/о -0.4 -10.5 46 -8 -8 1015.0 946.6
15 22.03 ЮЗ 9-11
{14}
27 км н/о -1.9 -11.2 49 -10 -10 1014.3 945.6
16 22.03 ЮЗ 9 35 км н/о -2.4 -10.6 53 -10 -10 1013.3 944.6
17 22.03 Ю 9 35 км н/о -3.0 -10.7 55 -11 -11 1011.8 943.0
18 22.03 Ю 13-16
{17}
6000 м слаб. снег {осадки} н/о -3.2 -10.7 56 -13 -13 1009.8 941.1 -7.7 -0.1
19 22.03 Ю 14-18
{18}
4200 м слаб. снег н/о -3.2 -9.8 60 -13 -13 1007.9 939.3
20 22.03 Ю 15-19
{21}
3700 м слаб. ливневой снег н/о -3.3 -9.4 63 -14 -14 1006.7 938.2
21 22.03 Ю 14-18
{21}
3400 м слаб. снег н/о -3.8 -7.5 75 -14 -14 1004.6 936.0
22 22.03 Ю 15 1200 м слаб. снег н/о -3.5 -5.2 88 -14 -14 1003.0 934.7
23 22.03 Ю 15-21
{21}
500 м снег н/о -4.3 -4.6 98 -16 -16 1000.7 932.3
00 23.03 Ю 13-17
{19}
300 м снег {ливн. осадки} н/о -4.1 -4.4 98 -15 -15 999.3 931.0
01 23.03 Ю 13 200 м сильн. снег н/о -3.8 -3.9 99 -14 -14 997.8 929.8
02 23.03 ЮЗ 12 200 м снег н/о -3.5 -3.7 99 -14 -14 996.6 928.7
03 23.03 Ю 12-16
{17}
200 м снег н/о -3.2 -3.3 99 -13 -13 995.1 927.4
04 23.03 Ю 12-15
{16}
300 м слаб. ледяной дождь н/о -3.1 -3.2 99 -13 -13 993.8 926.2
05 23.03 ЮЗ 12-16
{16}
100 м слаб. ледяной дождь н/о -3.0 -3.1 99 -13 -13 992.9 925.4
06 23.03 ЮЗ 11 100 м снег н/о -2.8 -2.9 99 -12 -12 990.8 923.4 -4.5 -2.8
07 23.03 ЮЗ 10-13
{15}
<100 м снежные зёрна н/о -2.7 -2.8 99 -12 -12 990.2 922.9
08 23.03 ЮЗ 9 100 м слаб. снег н/о -2.7 -2.8 99 -12 -12 989.3 922.1
09 23.03 ЮЗ 8-10
{13}
100 м туман {снег} н/о -2.2 -2.3 99 -11 -11 987.8 920.9
10 23.03 ЮЗ 12 400 м слаб. ливневой снег н/о -1.9 -2.0 99 -12 -12 986.8 920.0
11 23.03 ЮЗ 10-13
{14}
23 км в посл. час туман н/о -1.4 -1.5 99 -10 -10 986.2 919.5
12 23.03 ЮЗ 10-13
{13}
30 км {ливн. осадки, снег} н/о -0.8 -0.9 99 -10 -10 985.0 918.5
13 23.03 ЮЗ 7 30 км н/о -0.2 -0.2 100 -8 -8 984.6 918.3
14 23.03 З 11-14
{17}
35 км н/о +0.2 -2.5 82 -8 -8 984.1 917.9
15 23.03 З 7-10
{15}
45 км н/о +1.1 -4.9 64 -5 -5 983.5 917.6
16 23.03 З 15-16
{22}
45 км н/о +0.8 -6.9 56 -8 -8 982.7 916.8
17 23.03 ЮЗ 11-15
{18}
45 км н/о -0.5 -7.6 59 -9 -9 983.0 916.7
18 23.03 ЮЗ 11-15
{15}
50 км {ливн. осадки, осадки} н/о -0.8 -7.1 62 -9 -9 982.5 916.2 -2.8 +1.5
19 23.03 ЮЗ 11-15
{15}
45 км н/о -1.3 -7.1 65 -10 -10 981.6 915.3
20 23.03 ЮЗ 9-11
{14}
45 км н/о -2.0 -6.9 69 -10 -10 981.0 914.5
21 23.03 Ю 9-12
{12}
40 км н/о -2.5 -6.5 74 -11 -11 980.0 913.5
22 23.03 Ю 9-11
{13}
45 км н/о -2.4 -6.4 74 -11 -11 979.2 912.8
23 23.03 Ю 11 50 км н/о -2.5 -6.5 74 -12 -12 977.7 911.3
00 24.03 ЮЗ 10-14
{14}
30 км н/о -2.5 -6.0 77 -11 -11 976.7 910.4
01 24.03 ЮЗ 8 12 км слаб. снег н/о -2.5 -5.4 80 -11 -11 976.5 910.2
02 24.03 Ю 7-9
{11}
1100 м слаб. снег н/о -3.4 -3.4 100 -12 -12 976.4 909.9
03 24.03 Ю 6-7
{9}
300 м слаб. снег {осадки} н/о -3.1 -3.1 100 -11 -11 976.3 909.9
04 24.03 ЮЗ 6-7
{7}
300 м слаб. снег н/о -2.7 -2.7 100 -10 -10 976.5 910.1
05 24.03 З 6-7
{7}
200 м снежные зёрна н/о -2.7 -2.7 100 -10 -10 977.0 910.6
06 24.03 З 7-9
{9}
200 м слаб. снег {осадки} н/о -2.8 -2.9 99 -11 -11 978.5 912.0 -3.4 -0.8
07 24.03 З 6-8
{8}
300 м слаб. снег н/о -2.6 -2.8 99 -10 -10 979.8 913.2
08 24.03 СЗ 7 500 м слаб. ливневой снег н/о -2.7 -2.9 99 -11 -11 981.4 914.7
09 24.03 З 8-11
{11}
24 км в посл. час снег {ливн. осадки} н/о -2.8 -3.0 99 -11 -11 983.1 916.3
10 24.03 СЗ 7 30 км н/о -2.2 -2.6 97 -10 -10 984.3 917.6
11 24.03 СЗ 8 35 км н/о -1.8 -5.1 78 -10 -10 985.3 918.6
12 24.03 СЗ 9-11
{11}
30 км {ливн. осадки, снег} н/о +0.3 -5.1 67 -7 -7 985.8 919.5
13 24.03 СЗ 8-10
{12}
40 км н/о +1.0 -5.6 61 -6 -6 986.5 920.3
14 24.03 СЗ 8 40 км н/о +0.5 -5.4 65 -6 -6 987.6 921.3
15 24.03 СЗ 9-11
{13}
50 км н/о -0.6 -3.0 84 -9 -9 989.2 922.5
16 24.03 СЗ 10 15 км осадки н/о -1.4 -2.5 92 -10 -10 990.4 923.5
17 24.03 СЗ 9-12
{14}
40 км в посл. час снег н/о -1.9 -2.7 94 -11 -11 991.8 924.7
18 24.03 СЗ 10-12
{13}
35 км {ливн. осадки, снег} н/о -2.4 -4.7 84 -11 -11 992.8 925.4 -3.1 +1.3
19 24.03 СЗ 9-12
{13}
45 км н/о -3.3 -5.5 85 -12 -12 993.5 925.9
20 24.03 СЗ 8-11
{13}
35 км н/о -3.9 -6.2 84 -12 -12 994.8 926.9
21 24.03 СЗ 8-10
{11}
50 км н/о -4.5 -6.7 85 -13 -13 995.9 927.8
22 24.03 СЗ 6-12
{12}
40 км н/о -5.1 -7.5 83 -13 -13 996.9 928.5
23 24.03 С 10 45 км н/о -5.2 -7.1 86 -15 -15 997.6 929.2
00 25.03 С 11-13
{14}
35 км н/о -5.7 -7.0 91 -16 -16 998.5 929.9
01 25.03 С 12-15
{16}
6000 м снежные кристаллы н/о -6.2 -7.2 93 -17 -17 999.3 930.6
02 25.03 С 9-11
{16}
29 км в посл. час снег н/о -6.6 -8.0 90 -16 -16 1001.1 932.1
03 25.03 С 8-10
{14}
8000 м слаб. снег н/о -7.2 -8.2 93 -17 -17 1002.1 932.9
04 25.03 С 7 30 км в посл. час снег н/о -7.6 -8.8 91 -16 -16 1002.9 933.5
05 25.03 С 8-9
{11}
35 км н/о -7.7 -9.8 85 -17 -17 1003.6 934.2
06 25.03 С 6-8
{9}
30 км {ливн. осадки, снег} н/о -6.8 -9.2 83 -15 -15 1003.8 934.6 -8.0 -2.4
07 25.03 СЗ 5-7
{10}
40 км н/о -6.8 -10.2 77 -14 -14 1004.3 935.1
08 25.03 СЗ 4-7
{8}
35 км н/о -6.3 -10.9 70 -13 -13 1004.6 935.5
09 25.03 СЗ 5-7
{8}
30 км н/о -5.4 -13.0 55 -12 -12 1004.6 935.7
10 25.03 СЗ 6-7
{8}
29 км н/о -4.4 -14.0 47 -11 -11 1004.6 935.9
11 25.03 С 3-6
{8}
35 км н/о -4.2 -14.6 44 -9 -9 1004.8 936.1
12 25.03 СЗ 4-6
{7}
26 км н/о -3.5 -13.0 48 -9 -9 1004.5 936.0
13 25.03 З 4-6
{7}
30 км н/о -3.8 -14.6 43 -9 -9 1004.3 935.8
14 25.03 ЮЗ 4 30 км н/о -3.9 -14.1 45 -9 -9 1004.2 935.7
15 25.03 З 5-6
{6}
35 км н/о -4.0 -14.4 44 -10 -10 1004.0 935.5
16 25.03 З 3-4
{6}
28 км н/о -3.9 -13.6 47 -9 -9 1003.9 935.4
17 25.03 З 4 45 км н/о -4.8 -13.6 50 -11 -11 1004.2 935.5
18 25.03 З 5-5
{6}
50 км н/о -4.9 -11.5 60 -12 -12 1004.0 935.3 -7.2 -2.9
19 25.03 З 4-5
{6}
50 км н/о -5.7 -11.0 66 -12 -12 1004.4 935.4
20 25.03 СЗ 5 50 км н/о -6.3 -10.3 73 -13 -13 1004.9 935.8
21 25.03 С 7-11
{11}
50 км н/о -5.8 -9.6 74 -14 -14 1005.6 936.5
22 25.03 С 8 50 км в посл. час снег н/о -6.4 -9.4 79 -15 -15 1006.3 937.0
23 25.03 С 8 50 км н/о -6.5 -10.3 74 -15 -15 1006.8 937.5
00 26.03 СЗ 5-6
{10}
45 км {ливн. осадки, снег} н/о -7.3 -10.8 76 -15 -15 1007.8 938.2
01 26.03 С 6-7
{8}
50 км н/о -7.6 -10.5 80 -16 -16 1008.1 938.4
02 26.03 СЗ 7-9
{9}
50 км н/о -8.0 -11.1 78 -17 -17 1008.7 938.9
03 26.03 СЗ 7-9
{10}
50 км н/о -8.9 -11.8 79 -18 -18 1009.6 939.5
04 26.03 СЗ 7 50 км н/о -9.3 -12.1 80 -18 -18 1010.0 939.7
05 26.03 СЗ 6 50 км н/о -9.9 -12.1 84 -18 -18 1010.3 939.9

 

Местоположение метеостанции Муонио Саммалтунтури (Финляндия): широта 67.97 долгота 24.12 высота над уровнем моря 565 м.

В архиве по умолчанию представлена погода в Муонио Саммалтунтури за последнюю неделю. Архивные данные за месяц целиком и за предыдущие месяцы, начиная с января 2011 года, Вы можете получить, выбрав интересующий диапазон дат из раскрывающегося списка и нажав кнопку "Ввод!".


*Определитесь, кто Вы:
робот инопланетянин человек

Внимание! Время в таблицах - всемирное. Для получения местного времени необходимо прибавить поправку, которая равна 1 ч.

Смотрите также архив погоды в соседних городах и на ближайших метеорологических станциях:

Погода в Киттиля Ломполонвуома (Финляндия) (5 км)
Погода в Киттила Кенттарова (Финляндия) (5 км)
Погода в Киттила Маторова (Финляндия) (6 км)
Погода в Муонио Лаукукеро (Финляндия) (11 км)
Погода в Муонио Аламуонио (Финляндия) (18 км)
Погода в Киттила Левитунтури (Финляндия) (37 км)
Погода в Киттиля (Финляндия) (43 км)
Погода в Киттиля (Финляндия) (48 км)
Погода в Паркаломполо (Швеция) (60 км)
Погода в Киттила Покка (Финляндия) (72 км)

Пояснения к столбцам:

Ветер - указаны скорость ветра в м/с - средняя за 10 мин, порывы в срок и между сроками (в фигурных скобках) и направление, откуда дует ветер: С - северный, СВ - северо-восточный, В - восточный, ЮВ - юго-восточный, Ю - южный, ЮЗ - юго-западный, З - западный, СЗ - северо-западный.
Видимость - горизонтальная дальность видимости в метрах или километрах. При видимости от 1 до 10 км при отсутствии осадков обычно наблюдается дымка, при ухудшении видимости до 1 км и менее - туман. В сухую погоду видимость может ухудшаться дымом, пылью или мглою.
Явления - указаны атмосферные явления, наблюдавшиеся в срок или в последний час перед сроком; фигурными скобками обозначены явления, наблюдавшиеся между сроками (за 1-3 часа до срока); квадратными скобками обозначены град или гололедные отложения с указанием их диаметра в мм.
Облачность - указаны через наклонную черту общая и нижняя облачность в баллах и высота нижней границы облаков в метрах; квадратными скобками обозначены формы облаков: Ci - перистые, Cs - перисто-слоистые, Cc - перисто-кучевые, Ac - высококучевые, As - высокослоистые, Sc - слоисто-кучевые, Ns - слоисто-дождевые, Cu - кучевые, Cb - кучево-дождевые. Подробнее классификацию облаков см. в Атласе облаков (PDF).
T - Температура воздуха - температура, измеренная на высоте 2 м над землей.
Td - Температура точки росы - температура, при понижении до которой содержащийся в воздухе водяной пар достигнет насыщения.
f - Относительная влажность воздуха - влажноcть воздуха, измеренная на высоте 2 м над землей.
Te - Эффективная температура - температура, которую ощущает одетый по сезону человек в тени. Характеристика душности погоды. При расчете учитывается влияние влажности воздуха и скорости ветра на теплоощущения человека.
Tes - Эффективная температура на солнце - температура, которую ощущает человек, с поправкой на солнечный нагрев. Характеристика знойности погоды. Зависит от высоты солнца над горизонтом, облачности и скорости ветра. Ночью, в пасмурную погоду, а также при ветре 12 м/с и более поправка равна нулю.
P - Атмосферное давление - приведенное к уровню моря атмосферное давление.
Po - Атмосферное давление - измеренное на уровне метеостанции атмосферное давление.
Tmin - Минимальная температура - минимум температуры воздуха на высоте 2 м над землей.
Tmax - Максимальная температура - максимум температуры воздуха на высоте 2 м над землей.
R - Количество осадков - Количество выпавших осадков за период времени, мм. При наведении курсора мыши на число - период времени, за который выпало указанное количество осадков.
R24 - Количество осадков - Количество выпавших осадков за 24 часа, мм.
S - Снежный покров - Высота снежного покрова, см. При наведении курсора мыши на число - состояние снежного покрова и степень покрытия местности в баллах.